Theta_e
352 348 342 337 337 339 343 350 348 347 345 344 344 342 340 335 332 332 332 335 338 334 324 319 324 335 339 335 331 335 337 339 341 341 342 342 341 341 343 344 344 344 343 343 343 344 344 344 344 343 342 343 342 341 340 338 337 337 337 338 339 338 339 339 339 339 340 340 341 341 340 339 337 338 339 339 339 338 338 337 336 334 335 336 336
352 349 346 340 337 339 343 350 348 348 346 345 344 341 338 333 332 333 335 338 338 331 322 321 328 337 339 335 332 337 339 340 342 342 342 342 342 343 344 344 344 345 344 343 343 344 343 344 343 342 342 341 341 340 338 336 336 336 337 337 336 336 336 336 337 337 339 339 339 339 338 337 333 333 334 334 335 335 336 336 336 335 334 334 334
350 349 349 344 337 340 344 349 349 348 346 346 343 340 336 332 333 335 338 338 336 329 321 323 332 338 339 337 335 339 341 341 342 342 343 342 343 344 344 345 344 344 344 343 343 344 343 343 343 343 342 341 341 340 338 336 336 336 336 335 334 333 334 335 336 337 337 338 338 337 334 332 333 334 334 333 333 333 334 335 335 335 335 335 334
350 348 349 347 341 341 344 348 349 348 346 345 342 339 334 333 335 337 339 337 335 326 320 326 336 340 340 339 337 339 341 341 342 343 343 343 344 344 345 345 344 344 344 344 343 343 343 343 343 343 343 341 340 339 337 336 336 336 336 334 332 331 334 335 336 337 336 337 338 337 334 331 332 335 335 335 335 334 334 334 335 334 333 333 333
349 347 347 347 345 345 345 348 348 348 346 344 340 336 333 335 337 339 339 337 334 325 320 328 338 340 341 340 338 340 342 343 343 343 343 343 345 345 345 345 345 344 344 344 343 343 343 344 343 342 340 337 334 333 330 330 332 333 333 331 328 328 332 335 336 336 336 337 337 337 336 335 335 334 333 334 335 335 335 335 335 335 332 331 331
347 346 346 347 347 347 347 348 347 347 345 342 338 335 336 337 338 339 338 337 333 324 320 329 338 339 341 342 341 341 341 341 341 343 342 343 345 345 345 345 345 344 344 344 343 343 341 341 340 340 337 334 331 328 326 325 327 328 330 329 324 326 332 333 334 335 336 336 337 337 335 335 335 335 334 334 334 334 335 336 335 335 333 332 331
346 346 346 346 347 347 347 346 346 345 343 341 337 337 338 338 339 339 338 336 332 324 321 329 338 339 340 341 342 341 340 340 340 342 342 343 345 345 345 344 345 344 344 343 342 340 337 336 337 338 337 336 334 330 328 326 324 323 326 326 322 326 330 330 331 332 334 335 337 336 334 335 335 335 335 334 334 333 334 334 334 334 333 332 331
346 345 345 346 346 346 346 345 345 343 342 340 338 339 339 339 339 337 336 333 328 324 322 328 337 339 339 340 341 341 340 341 341 342 343 343 344 345 345 343 344 344 343 342 341 340 338 335 335 337 337 337 335 331 329 327 323 319 320 321 322 327 330 329 331 332 333 334 333 333 332 334 335 336 335 335 335 334 333 333 333 332 332 331 331
346 345 346 346 345 346 345 344 343 342 341 340 340 340 340 340 338 337 334 329 325 326 327 329 336 338 338 340 340 340 340 341 341 342 343 343 343 344 344 343 343 342 342 341 340 339 338 336 335 337 337 335 332 329 328 324 318 316 317 320 325 329 330 330 331 332 334 334 332 333 332 333 335 336 335 334 334 332 331 330 330 330 331 331 331
346 346 347 346 344 345 345 344 343 343 342 340 340 340 340 339 337 335 332 330 327 329 330 330 335 338 337 338 339 339 339 339 340 341 342 342 342 343 343 343 342 341 340 338 337 335 335 336 336 336 334 331 327 326 324 319 316 318 321 325 329 331 331 332 332 330 331 332 332 331 333 333 334 335 334 333 332 330 329 328 329 330 331 331 332
346 347 346 345 343 343 343 342 343 342 341 340 340 340 339 338 337 334 330 330 329 332 333 329 332 336 337 338 338 338 338 338 339 339 340 342 342 342 342 342 340 339 336 333 333 332 332 333 333 332 329 327 325 323 319 318 321 324 327 330 331 332 332 333 333 331 330 331 331 331 332 334 334 335 333 332 332 331 329 329 330 331 331 332 333
348 347 347 344 340 341 341 340 341 340 340 339 339 339 339 338 337 332 329 330 332 337 337 333 332 332 336 337 338 338 337 338 338 337 338 341 341 341 340 340 339 335 332 331 330 330 329 330 331 330 327 325 324 320 318 323 328 330 332 332 332 332 333 333 331 330 331 332 332 331 332 333 334 334 332 332 333 331 330 331 331 331 331 332 332
348 347 346 343 338 338 337 337 338 338 339 338 339 340 339 339 336 330 330 333 336 338 338 338 335 332 335 337 338 338 337 338 338 337 336 340 340 340 339 339 338 333 330 330 329 329 329 330 330 330 326 322 319 317 321 328 331 332 332 332 333 333 334 334 331 331 333 333 332 332 332 332 333 333 332 332 332 331 331 332 331 331 331 331 332
347 346 345 341 337 337 336 336 338 337 338 338 339 338 337 336 333 330 331 335 337 338 338 338 337 334 335 337 338 337 338 338 338 338 337 339 339 339 339 337 335 331 330 330 329 329 330 331 330 329 324 319 315 316 324 330 331 332 332 332 333 334 335 334 333 333 333 333 333 332 332 331 331 331 332 332 331 331 332 332 331 331 331 331 332
347 346 344 340 338 339 338 336 336 334 335 335 335 334 332 332 331 329 330 334 337 338 337 337 337 337 336 336 337 337 338 339 338 338 337 338 337 338 337 335 332 330 330 330 329 329 330 331 330 328 323 318 314 317 326 330 331 332 332 333 333 334 334 331 332 333 333 333 332 331 331 331 331 331 332 331 330 331 333 332 332 331 331 332 331
347 345 344 342 340 342 340 336 333 332 332 332 332 331 329 329 329 329 329 332 336 337 336 337 338 338 337 336 336 337 338 338 338 338 337 337 337 338 337 334 330 329 331 332 331 330 330 331 331 328 322 317 314 317 326 330 331 332 332 333 333 333 332 330 330 332 332 331 330 329 331 332 332 333 333 332 329 330 332 332 331 331 331 331 331
347 345 344 343 342 342 341 339 336 334 335 335 334 332 329 330 331 332 332 333 334 335 337 338 337 338 338 336 334 336 337 337 338 338 337 336 337 338 337 333 330 329 331 332 332 331 330 331 330 328 321 316 314 316 324 330 332 332 332 333 333 333 333 333 333 333 333 332 331 331 332 333 334 334 333 331 330 329 330 331 331 330 330 330 330
346 344 344 343 342 341 341 340 339 338 338 338 336 335 333 334 335 336 335 334 334 335 337 338 337 337 339 337 334 334 336 336 336 336 335 336 338 338 337 333 330 329 330 332 333 331 331 331 331 328 322 316 314 314 321 329 331 332 332 332 332 332 332 333 334 335 334 333 332 331 331 333 333 333 331 331 330 329 329 330 330 329 329 328 328
345 345 344 343 342 341 341 340 340 340 338 338 338 337 336 336 337 338 337 334 333 335 338 339 337 337 338 337 334 333 334 335 334 335 335 336 337 338 337 333 330 329 330 332 333 332 331 331 331 328 323 317 314 314 321 328 331 332 333 333 333 332 332 333 334 334 333 332 331 331 332 332 332 332 331 330 330 329 329 329 329 329 328 327 328
344 345 345 343 342 341 341 340 340 340 339 339 338 337 336 336 338 339 338 334 333 336 338 339 338 337 336 336 334 333 333 332 331 331 333 335 336 338 337 333 330 329 329 331 332 333 331 331 331 328 323 317 314 318 327 332 333 334 334 335 334 332 332 333 334 333 332 331 330 331 332 331 331 331 330 330 330 329 329 329 328 328 327 327 327
344 344 346 345 343 341 341 340 341 341 340 339 337 337 336 335 337 338 338 335 333 336 339 339 339 337 336 335 335 336 334 331 330 328 328 331 336 337 337 334 331 329 328 330 332 333 332 331 330 328 324 318 316 323 331 333 334 335 335 336 336 335 334 333 334 333 332 331 330 330 331 330 329 329 329 329 329 328 328 327 327 327 327 326 326
344 345 346 346 344 342 341 341 341 341 340 340 339 337 336 336 337 337 338 336 334 335 338 338 338 337 337 336 336 339 336 332 333 332 326 326 332 335 335 334 331 329 328 330 331 333 333 331 330 328 324 320 319 325 332 334 335 335 336 336 336 336 336 334 335 333 332 330 329 329 329 329 329 329 329 328 328 328 327 326 327 327 326 325 326
345 345 346 345 344 343 342 342 342 341 340 341 340 338 336 337 337 338 338 337 336 335 337 338 337 338 338 337 339 341 337 336 337 335 330 326 329 332 334 333 331 329 328 329 331 332 333 331 330 328 327 325 323 327 330 332 334 335 335 335 335 336 335 334 334 333 332 329 328 329 329 329 329 329 328 328 328 327 327 327 326 324 324 324 325
347 346 345 344 343 343 343 343 342 340 340 342 341 338 337 339 338 338 338 337 336 336 337 338 338 339 339 339 340 342 340 339 338 336 336 333 331 329 331 334 331 329 328 329 331 332 333 332 330 329 332 333 332 332 331 329 331 336 336 334 335 335 334 333 333 332 331 328 327 329 329 328 328 328 328 328 328 327 327 326 325 324 324 325 325
347 344 343 342 342 342 342 343 342 340 341 342 342 340 340 341 340 338 338 338 337 337 338 339 339 338 339 340 341 343 341 341 338 338 339 335 333 329 328 332 331 329 328 328 330 332 332 332 330 330 334 337 337 337 335 331 333 336 336 335 335 334 333 333 333 332 331 328 326 328 329 328 328 329 328 328 328 327 327 326 324 324 325 325 325
343 341 343 342 342 342 341 342 342 342 343 343 342 341 341 342 341 340 339 340 340 339 339 340 339 338 339 340 341 342 341 341 339 339 339 335 334 331 327 329 330 329 328 328 332 333 334 333 330 330 334 337 338 338 336 333 334 335 334 334 334 333 333 332 333 332 332 327 325 328 329 328 329 328 328 327 327 327 327 326 325 325 324 324 325
342 341 343 343 342 343 342 342 343 342 343 342 342 342 341 342 342 341 341 340 341 340 340 340 339 339 339 339 340 341 340 340 340 339 338 337 336 333 331 331 329 329 328 330 334 336 337 337 333 330 333 338 338 337 335 333 334 334 334 334 334 333 332 332 333 332 332 328 325 328 329 328 329 328 327 327 327 327 327 326 326 326 325 325 325
343 341 342 342 342 343 342 342 343 342 343 342 342 342 342 343 341 342 342 341 341 341 341 340 340 340 340 339 339 340 340 338 339 339 338 338 337 334 334 334 332 331 328 330 336 336 336 339 337 333 334 337 337 335 334 332 332 333 334 333 332 332 332 333 333 332 332 329 326 326 328 329 329 328 328 328 328 327 327 327 326 325 325 326 325
343 343 343 341 341 343 342 342 343 342 343 342 342 342 342 342 341 341 341 341 341 341 341 341 340 338 339 340 339 339 339 338 338 338 338 337 338 335 333 335 335 334 329 330 336 336 335 338 337 336 336 336 335 334 333 332 331 333 333 333 332 332 333 333 333 333 332 331 328 324 326 329 327 327 328 328 329 329 328 327 326 325 325 325 324
345 344 343 341 342 343 342 342 343 342 342 342 342 341 342 342 341 341 341 341 340 339 339 339 337 337 338 339 339 338 337 337 337 338 338 338 338 336 335 335 335 335 330 330 337 336 334 337 337 337 336 336 335 333 332 332 331 332 332 332 333 333 333 333 333 333 332 332 331 325 323 327 327 326 329 329 329 329 329 327 325 325 324 324 324
345 344 344 343 344 343 342 342 342 342 341 341 341 341 342 341 341 341 340 339 338 338 338 337 337 338 338 339 339 338 337 337 337 338 339 338 337 336 336 336 335 334 329 329 335 335 334 335 337 338 336 335 335 333 332 332 330 331 332 332 333 333 333 334 334 334 333 332 332 327 322 325 327 328 329 329 329 328 327 326 326 324 324 324 324
346 345 344 344 343 342 342 342 342 342 341 341 341 341 341 340 340 340 338 339 338 337 337 337 338 337 337 339 338 338 338 338 338 338 338 338 336 335 336 336 335 334 330 329 332 334 334 335 337 337 336 335 335 334 332 331 330 331 332 332 333 334 334 335 334 333 333 331 332 330 325 325 327 329 329 329 328 327 326 326 327 326 325 325 324
347 346 344 344 344 342 342 342 342 342 341 341 341 340 340 340 339 339 338 339 339 338 338 338 338 337 337 338 338 338 339 338 338 338 337 337 336 335 336 336 336 335 334 333 333 334 334 335 336 337 337 335 335 335 333 332 332 331 332 333 334 334 334 335 335 334 333 332 331 331 329 326 325 327 328 328 328 326 326 327 327 325 325 324 324
346 345 344 344 343 343 342 343 342 341 341 340 340 340 340 339 338 339 339 339 340 340 339 338 338 338 339 339 339 339 339 338 338 338 338 337 337 336 335 336 335 335 336 335 334 334 333 335 336 337 337 336 336 335 333 334 333 332 333 334 334 334 335 335 335 334 333 333 332 331 331 329 325 325 326 327 327 325 324 326 327 325 324 323 323
344 345 344 343 343 343 343 343 342 341 341 340 339 340 340 340 339 339 339 339 340 341 340 339 338 339 339 339 339 338 339 338 338 338 338 338 337 336 335 335 334 335 335 335 335 334 333 334 335 336 337 337 336 335 335 334 334 334 334 334 334 335 335 335 334 334 333 332 332 332 332 331 328 326 325 324 324 324 323 326 326 324 323 323 323
344 345 344 343 343 344 343 343 342 342 342 341 340 339 340 340 339 339 339 339 340 340 340 339 338 338 337 338 338 337 338 338 337 337 337 337 337 337 336 335 335 335 334 335 335 335 335 334 334 335 336 336 335 335 335 335 334 333 333 334 334 335 335 334 334 334 333 332 332 332 332 331 330 329 327 323 321 322 324 326 326 324 323 323 323
344 344 344 343 342 343 342 342 341 342 341 341 340 339 340 340 339 339 339 339 339 339 339 339 337 337 336 336 337 337 337 338 337 336 336 337 337 337 337 337 336 336 334 335 336 336 336 335 334 334 335 335 334 334 335 334 334 332 333 334 335 335 335 334 335 334 333 333 332 332 332 331 331 331 330 327 323 322 325 326 323 321 322 324 324
343 342 342 342 342 342 342 341 341 341 340 340 340 339 340 339 339 339 338 339 339 340 339 338 337 336 336 335 336 337 337 337 337 336 336 336 336 336 337 337 338 337 335 335 335 336 335 335 335 334 333 334 334 334 334 333 333 333 333 334 335 335 335 334 334 334 334 333 333 332 332 331 331 331 330 330 327 322 321 322 320 319 321 323 324
343 342 341 341 341 341 341 341 341 340 340 340 340 340 340 339 339 339 338 338 339 340 339 337 337 336 336 336 336 337 336 336 336 336 336 335 335 336 336 337 338 337 337 336 335 334 334 334 335 335 334 333 333 333 333 333 333 334 334 335 336 335 335 334 333 333 334 334 333 332 332 332 331 331 330 330 328 323 317 317 319 321 323 324 324
343 342 341 340 340 339 339 339 339 339 339 340 340 339 339 339 339 338 338 338 339 339 338 338 338 337 336 336 336 336 335 336 336 336 336 335 336 336 336 336 336 336 337 336 335 334 333 334 334 335 335 334 333 333 333 334 334 334 335 336 336 335 335 334 333 333 333 333 333 331 332 333 331 331 331 330 328 325 320 318 323 325 325 325 325
342 342 341 340 340 339 340 340 340 339 339 340 340 339 339 338 338 337 337 337 339 339 339 339 339 339 337 336 335 335 335 335 336 336 336 335 336 336 335 335 336 336 336 336 336 334 332 333 333 334 335 335 335 334 334 334 334 335 336 336 335 333 334 334 333 333 332 333 333 331 331 332 332 332 332 330 327 326 324 324 327 327 326 326 326
341 342 341 341 340 340 340 340 340 340 340 340 340 340 339 339 338 338 338 338 339 340 340 340 340 340 339 337 336 335 335 334 336 336 336 336 336 335 335 335 335 336 336 336 336 335 333 333 333 334 332 333 335 334 334 334 334 335 336 336 335 334 334 333 333 333 332 333 333 331 331 331 332 332 331 330 329 328 326 327 329 329 328 327 326
340 340 340 340 340 340 340 340 340 339 339 340 340 339 339 340 340 340 340 339 339 339 339 340 339 339 339 338 337 337 335 334 334 335 335 336 336 335 335 335 334 335 336 336 335 336 335 334 334 334 332 332 334 334 334 334 334 335 336 336 336 336 335 333 333 333 332 333 333 331 332 332 331 332 331 331 331 330 328 328 330 330 329 328 328
339 339 339 339 339 339 339 340 339 339 340 340 339 339 339 339 339 339 339 338 338 339 339 339 339 339 338 337 336 336 335 334 334 334 335 336 336 336 336 335 334 335 336 335 335 335 335 335 335 334 333 332 333 332 333 333 333 335 336 336 336 336 336 335 334 334 332 333 333 332 332 332 332 332 331 331 331 330 329 330 330 330 331 330 329
338 338 338 338 338 338 338 339 339 338 339 339 339 339 339 339 339 339 339 338 338 339 339 340 339 339 339 338 337 337 335 334 334 335 336 336 336 336 336 335 334 335 335 334 334 335 335 335 335 334 334 333 332 331 333 334 333 335 335 336 336 336 336 335 335 335 333 333 333 333 332 332 333 332 331 331 331 330 330 330 329 330 331 330 329
337 337 337 337 337 337 337 338 338 337 337 338 338 338 339 340 340 339 339 338 338 338 339 339 338 339 339 339 338 338 336 335 334 335 336 335 335 335 335 334 335 335 335 334 334 335 334 335 335 334 333 333 332 332 333 333 334 335 334 335 336 335 335 334 336 336 334 333 333 333 332 332 334 334 332 331 330 330 330 330 330 330 330 330 329
337 337 337 337 337 337 337 337 337 338 337 337 337 338 338 339 339 338 338 338 338 338 338 338 338 339 339 339 338 338 337 336 335 335 334 334 334 335 335 335 335 335 335 335 335 335 334 335 335 334 333 332 332 333 333 334 336 336 334 335 335 334 333 333 334 336 335 333 332 332 332 332 333 333 332 331 330 330 330 330 330 330 330 330 329
334 335 335 336 336 337 337 337 337 338 337 337 337 338 338 338 338 338 337 337 337 338 338 338 338 339 339 338 338 338 338 337 336 334 334 334 334 334 335 335 335 335 335 335 335 335 334 335 335 334 334 333 333 332 333 335 336 336 334 334 334 334 334 333 332 334 335 335 333 332 332 331 332 333 332 331 330 331 331 330 330 331 331 330 329
331 332 332 333 334 334 335 336 336 336 337 337 337 337 337 337 337 337 336 337 337 338 338 338 338 338 338 337 337 337 337 337 336 335 335 335 334 334 335 335 335 335 335 334 335 334 334 335 335 335 334 334 334 333 333 334 335 335 335 334 334 334 335 335 333 331 332 335 335 333 332 331 332 333 332 331 331 331 331 331 330 330 330 330 330
329 329 330 331 331 331 332 333 333 333 334 334 335 335 336 337 337 336 336 337 337 338 338 338 337 337 337 337 336 336 335 336 336 335 334 335 335 335 335 335 335 335 335 334 334 334 334 335 335 335 334 333 335 335 333 333 334 335 335 334 334 334 335 335 334 332 332 333 334 333 332 333 333 332 332 331 331 331 331 331 330 330 330 329 330
327 328 328 329 329 329 329 330 331 330 330 331 331 332 333 334 335 335 336 336 336 337 337 338 337 337 336 336 336 336 335 335 335 335 334 334 334 334 335 335 335 335 334 334 334 334 334 334 334 334 334 334 336 336 334 333 333 334 335 334 333 334 335 334 333 332 332 332 333 333 333 333 333 332 333 331 331 331 331 331 330 330 330 329 329
Wind_Speed
18 17 19 18 16 15 16 17 18 18 18 18 18 19 19 18 17 17 16 14 12 12 13 14 15 17 17 15 17 18 17 16 15 14 13 13 13 13 14 14 14 14 15 16 16 16 15 15 15 15 15 15 15 14 16 17 17 17 18 19 20 20 19 19 19 19 19 19 19 19 18 19 19 18 17 18 19 19 19 18 17 18 19 18 17
21 17 15 17 17 15 16 17 18 18 18 18 19 19 19 18 18 17 15 13 12 12 14 15 16 18 17 14 17 17 15 15 14 13 12 12 12 13 14 15 15 16 16 17 17 16 15 16 16 15 15 14 14 14 16 18 18 18 19 20 20 20 20 19 18 18 19 19 19 19 19 19 18 18 18 18 18 18 19 19 18 18 19 17 17
23 18 14 15 17 16 17 17 18 18 18 19 19 20 19 19 18 16 14 13 12 13 14 16 17 18 16 14 16 15 15 14 14 13 12 12 13 14 15 16 16 17 17 17 17 16 16 16 16 15 15 14 13 13 15 17 17 17 17 18 19 19 19 18 17 17 18 18 18 19 19 19 19 19 19 18 18 18 19 19 17 17 17 17 17
23 19 15 14 16 17 17 18 18 18 19 19 20 20 21 20 17 15 13 13 12 13 16 17 17 17 14 14 15 15 15 15 14 13 12 12 14 15 16 16 17 17 17 17 17 16 16 15 15 14 14 13 12 12 13 14 15 15 15 15 16 16 17 17 16 16 17 17 17 18 19 19 20 19 18 18 18 18 18 18 19 18 16 16 17
22 19 15 14 15 17 19 19 19 18 19 20 21 22 21 19 16 14 13 13 12 13 16 18 18 17 15 14 15 15 15 14 13 12 11 13 15 15 16 16 16 17 17 17 17 16 15 14 14 13 12 12 12 12 12 12 12 13 13 14 14 13 13 14 14 14 15 16 17 19 19 19 18 18 18 18 18 18 18 18 19 19 17 16 17
21 17 17 16 14 17 19 20 19 19 19 21 22 22 21 18 16 14 14 13 12 14 17 19 19 19 18 15 14 14 14 14 13 12 12 14 15 15 15 16 16 16 16 16 15 15 14 13 12 12 11 12 12 12 11 11 10 10 11 12 13 13 11 10 10 11 11 11 12 15 19 19 16 17 17 17 17 17 18 17 18 19 18 17 17
20 18 18 16 15 18 20 20 20 20 21 22 22 21 19 17 15 14 14 12 13 15 17 19 19 20 19 16 15 15 15 15 14 13 13 14 14 14 15 16 16 15 15 15 14 13 13 12 11 11 11 11 11 11 10 10 9 9 10 12 14 14 12 8 6 4 2 2 1 10 18 18 15 15 16 16 16 16 17 17 18 18 18 18 18
19 18 18 17 15 19 21 20 21 21 22 22 22 20 18 16 15 14 13 13 14 15 17 19 19 20 19 17 17 16 16 16 14 13 13 13 14 14 15 16 15 14 14 13 12 11 11 10 10 10 9 9 9 9 9 9 9 9 11 15 15 14 11 8 5 3 4 7 9 14 17 17 15 14 16 17 17 16 16 16 17 18 18 18 18
18 19 20 18 16 20 20 21 21 21 22 21 21 19 17 16 15 14 13 14 14 16 16 17 20 20 19 18 18 17 16 15 14 13 12 12 12 13 14 15 14 13 13 12 11 10 9 9 9 9 8 7 8 8 9 9 11 13 16 17 15 13 11 10 10 11 11 15 19 19 17 17 15 14 15 16 16 15 15 15 16 17 18 18 17
18 20 19 16 17 21 20 20 20 20 21 21 21 19 17 16 15 14 14 15 15 16 15 17 21 21 19 18 18 18 17 16 15 14 13 11 12 13 13 13 13 11 10 11 11 10 9 10 10 9 7 7 7 8 10 12 15 18 19 16 14 11 9 9 11 13 13 13 17 17 17 16 15 14 14 14 14 14 15 15 16 18 18 17 16
19 22 18 16 19 21 21 21 20 20 21 21 20 18 17 16 15 15 15 17 17 16 15 16 19 20 20 19 18 18 18 17 16 15 13 12 12 12 12 11 10 9 10 10 10 10 10 11 10 9 8 8 8 9 12 16 19 19 17 13 10 8 7 8 10 13 14 14 15 15 16 15 14 14 13 14 15 15 17 17 17 18 17 17 16
22 22 19 18 21 21 22 22 21 21 21 20 19 18 17 17 16 15 16 17 16 15 14 14 15 17 19 19 18 18 18 17 16 15 13 12 11 11 10 9 9 9 10 10 10 10 11 11 10 10 10 10 9 10 14 19 19 17 14 10 8 7 9 11 12 14 15 15 15 15 15 15 13 13 14 15 16 16 17 18 17 17 16 15 16
22 21 18 19 22 21 21 21 21 20 19 19 18 17 17 17 15 16 17 17 16 15 15 14 13 15 18 19 18 17 17 17 16 16 14 12 11 10 9 8 9 10 10 10 10 10 10 10 10 10 11 10 11 11 16 19 17 14 12 10 9 10 11 13 14 14 15 14 14 14 14 14 14 14 15 15 16 16 16 16 16 15 15 15 15
22 21 20 22 24 22 21 19 20 19 18 18 18 18 17 17 16 16 17 18 17 16 16 16 15 15 17 18 17 16 16 16 17 16 15 13 12 10 9 9 10 11 11 10 10 10 9 9 10 11 11 11 11 13 17 17 16 14 12 11 10 11 12 13 14 15 15 15 14 14 14 15 15 14 15 15 15 16 15 15 16 15 15 15 14
23 24 24 25 24 21 21 20 20 20 19 19 19 19 18 17 17 17 19 19 19 18 18 18 17 16 17 18 17 16 16 17 17 17 16 14 12 10 9 11 12 12 11 11 10 10 9 9 10 10 10 10 12 14 18 17 16 13 11 10 11 12 13 14 14 14 14 14 13 14 14 15 14 14 14 14 15 15 15 14 14 14 14 14 13
23 24 23 23 22 19 19 20 20 21 20 20 19 18 18 18 19 19 20 20 20 19 19 19 18 17 17 17 17 16 15 16 17 16 15 14 12 10 10 12 13 12 11 11 10 10 10 10 10 10 10 10 11 14 17 17 15 13 12 12 14 15 15 15 14 13 13 12 12 14 14 12 13 13 13 13 14 14 14 13 13 13 13 12 12
23 21 21 22 21 19 18 17 17 19 18 18 17 16 17 18 19 19 20 20 20 21 21 20 18 17 16 16 16 16 15 15 15 15 15 14 13 10 11 13 13 11 11 10 10 10 10 10 9 9 10 10 10 13 15 16 15 14 15 16 17 17 17 17 15 14 14 13 13 13 12 11 11 12 11 11 12 12 12 12 12 11 11 10 10
24 20 20 22 20 18 17 15 14 14 14 15 13 13 14 16 17 18 18 17 19 21 21 20 18 16 15 15 15 15 14 13 13 15 14 14 13 11 11 14 13 11 10 10 9 9 10 10 9 9 10 10 10 11 13 15 17 18 18 17 17 16 16 16 14 14 14 13 13 12 11 10 11 11 10 10 11 11 11 11 11 10 9 9 9
23 19 18 19 18 16 16 15 14 12 12 11 10 11 12 14 16 17 16 16 18 20 21 20 17 15 14 15 14 13 12 11 11 13 13 14 14 11 12 14 14 12 10 10 9 9 9 9 9 9 10 10 11 13 15 17 18 18 17 15 13 14 14 14 14 13 12 12 12 12 11 11 11 11 10 10 11 11 11 11 10 9 9 9 9
23 20 16 16 17 16 16 15 14 13 11 10 9 11 13 14 16 15 14 15 18 19 19 18 17 15 14 14 14 13 11 10 10 11 13 15 14 11 11 14 14 13 11 10 9 9 9 10 9 9 10 11 13 17 19 18 16 15 14 14 14 15 15 12 11 10 10 11 11 12 12 10 10 10 10 10 10 10 10 10 9 9 8 8 10
21 19 12 13 18 16 16 15 14 13 12 10 10 11 13 14 14 14 14 14 17 18 18 17 16 14 13 14 14 12 11 10 10 10 13 16 16 12 12 14 15 14 12 10 9 9 10 10 9 10 11 12 15 18 18 16 15 14 14 14 14 14 13 10 11 11 11 11 10 11 10 9 10 9 9 9 9 9 9 9 9 9 9 9 10
15 15 10 13 18 17 14 14 14 14 13 13 12 11 13 13 11 12 12 13 15 16 18 16 14 13 13 15 14 12 10 10 11 11 11 16 19 15 13 15 16 14 12 11 10 9 10 11 10 10 12 13 16 18 17 16 14 12 12 11 12 12 10 11 13 13 12 10 9 10 9 9 10 9 9 9 8 8 8 8 9 9 9 10 11
14 14 13 15 18 16 13 13 15 16 16 15 13 12 13 13 11 11 11 12 13 15 16 13 12 12 13 15 16 13 11 11 12 11 11 14 19 17 15 16 17 15 13 11 10 9 10 12 12 12 13 13 15 15 15 13 11 10 10 10 12 11 10 10 10 10 10 9 9 10 9 10 10 9 9 9 8 9 9 9 9 9 9 11 10
15 14 14 16 17 15 12 15 18 18 17 16 14 14 14 13 12 12 12 11 12 13 14 12 12 12 12 14 15 15 13 12 12 11 12 13 16 17 16 17 17 16 14 11 10 9 10 12 12 13 13 12 13 11 8 5 5 6 7 8 8 7 8 9 11 12 11 9 9 10 9 9 9 9 9 8 8 8 9 9 9 9 10 11 10
14 13 14 15 17 16 16 18 19 19 17 15 14 15 15 14 13 12 12 11 12 12 12 11 10 11 13 15 15 14 15 14 12 12 13 13 14 16 17 19 18 17 15 13 11 10 10 13 14 13 12 12 12 11 9 3 2 2 4 5 5 6 7 10 12 11 9 7 9 10 9 9 9 9 8 8 8 7 8 8 9 10 10 10 9
13 13 16 17 17 17 18 20 20 19 16 15 15 14 15 14 12 12 12 12 13 12 11 11 10 13 16 17 14 12 12 13 13 14 13 11 12 15 16 20 21 17 16 14 12 11 11 13 14 13 12 10 8 10 10 6 3 5 5 5 5 6 7 9 10 8 6 6 9 11 9 9 8 8 8 7 7 7 7 8 9 9 9 9 9
12 14 17 17 18 18 18 20 20 18 16 15 14 14 14 14 13 13 13 14 14 12 11 10 10 14 16 14 11 10 10 9 11 13 13 11 12 14 14 18 21 19 17 15 12 12 12 12 14 14 10 8 9 8 9 7 6 7 7 5 4 4 7 9 9 7 5 5 8 10 10 8 7 8 9 7 6 7 7 7 8 8 9 10 9
11 13 16 16 16 17 17 18 18 17 15 13 12 12 13 13 13 12 13 14 13 13 12 10 10 11 14 13 10 10 8 8 12 15 13 12 12 12 14 16 18 19 19 18 14 13 13 13 14 13 11 10 10 10 8 8 7 7 8 5 4 5 7 9 8 6 5 5 8 10 11 9 7 7 7 7 7 7 7 7 7 7 8 8 9
12 12 15 16 14 15 15 16 18 16 13 12 10 10 12 10 9 11 13 12 11 12 11 10 9 9 12 11 10 10 7 8 13 15 14 13 13 12 14 16 17 19 21 20 17 16 15 15 15 14 13 12 10 10 9 8 8 6 7 6 6 7 7 8 9 7 6 6 7 8 10 10 9 8 7 7 7 7 7 8 8 7 7 7 8
13 14 15 14 13 14 14 15 17 15 12 11 8 8 9 8 6 9 11 10 9 10 10 9 6 7 11 9 10 10 8 11 15 16 15 13 13 13 14 16 17 18 21 21 18 16 16 17 17 15 14 12 10 10 9 8 9 8 7 7 7 7 6 7 9 9 8 8 5 4 8 11 11 10 8 7 7 7 8 8 7 6 6 7 7
12 15 14 13 14 14 13 14 15 14 12 9 7 7 7 5 6 8 8 8 9 9 7 6 4 6 8 9 11 10 8 12 15 15 15 13 13 13 13 14 16 17 19 20 17 15 16 16 15 15 13 12 11 11 10 9 10 9 8 8 9 8 7 7 8 10 9 7 4 3 7 10 11 10 8 8 8 8 7 7 8 7 8 8 7
10 13 13 13 14 13 12 13 12 11 11 8 6 6 4 3 6 6 6 7 7 4 2 4 4 4 7 11 13 13 11 12 13 14 14 13 14 15 15 16 15 16 17 17 17 15 15 15 14 14 13 13 11 12 12 10 10 9 9 9 10 8 7 8 8 9 9 7 5 4 6 9 11 10 9 9 9 8 7 7 8 8 8 8 7
9 12 14 13 14 14 12 13 12 10 9 7 4 4 3 3 5 4 5 4 3 1 1 3 5 4 6 11 14 14 14 14 14 15 14 13 14 14 16 17 17 16 16 16 16 15 14 14 14 14 14 14 12 12 12 11 10 9 8 10 10 9 8 8 8 9 9 8 7 6 6 7 9 11 10 11 11 9 8 7 8 8 8 8 7
10 12 13 12 13 13 11 11 11 10 8 6 4 5 4 3 4 4 4 2 3 2 4 6 7 7 7 10 14 16 16 16 15 14 14 14 12 13 14 16 17 16 16 15 14 15 14 14 15 14 13 13 11 12 12 11 10 9 8 9 9 9 9 9 9 9 9 9 9 9 8 7 8 10 11 12 11 9 10 9 8 9 8 8 8
12 13 12 12 11 10 10 10 10 11 10 9 8 7 5 4 4 5 5 5 6 7 8 9 10 10 10 11 15 17 18 17 16 14 14 14 12 13 14 14 15 17 16 15 13 13 14 14 15 15 14 13 12 12 12 11 10 10 9 8 8 9 9 9 10 9 8 9 10 10 10 9 8 9 10 11 10 10 11 11 9 9 9 9 9
12 13 13 13 12 10 9 10 10 11 12 11 10 9 7 6 5 6 7 9 8 8 8 10 11 11 11 13 15 17 18 17 16 16 14 13 13 12 11 10 13 16 15 14 14 13 13 14 15 16 15 14 14 13 12 12 11 10 10 9 9 10 9 9 9 9 8 8 9 8 11 13 12 11 9 8 9 10 12 12 11 10 10 9 9
12 13 14 14 13 10 10 10 11 11 11 10 10 9 8 7 6 6 8 7 5 5 7 9 11 12 13 14 14 15 17 18 17 16 15 13 12 12 9 7 10 14 13 12 14 14 14 14 14 16 17 15 15 14 13 13 12 10 9 10 9 9 9 10 9 9 9 8 8 9 12 15 15 12 11 9 9 11 12 11 10 11 11 11 10
12 13 14 14 13 11 9 9 10 10 10 10 9 9 8 6 5 5 5 3 2 5 7 9 13 14 15 14 13 14 16 18 18 17 17 14 13 13 11 8 8 13 14 12 14 14 14 15 15 16 17 17 16 15 15 15 13 11 10 9 10 10 10 11 11 10 10 8 8 11 12 13 13 12 12 12 9 9 12 11 10 13 13 12 11
13 12 12 12 12 11 10 9 9 9 9 9 9 9 9 7 5 3 3 4 5 8 10 13 15 16 17 16 15 15 16 18 19 18 18 16 14 14 13 11 10 12 14 14 15 15 15 16 17 17 17 17 17 17 16 16 14 12 11 10 10 11 11 11 12 11 10 8 8 11 12 11 12 12 12 13 11 8 11 12 12 13 13 12 11
15 14 12 10 9 9 9 8 8 8 9 8 7 6 7 6 5 4 6 8 10 11 12 14 16 16 17 18 17 16 16 18 19 19 17 16 15 15 15 14 13 14 16 16 16 16 15 16 16 17 17 17 17 16 15 15 13 11 11 11 10 11 10 10 11 11 10 9 9 10 11 10 10 11 12 14 14 12 11 13 13 12 12 12 12
16 15 14 11 8 7 7 6 5 5 5 4 3 3 3 4 6 7 9 11 12 12 12 14 15 16 17 18 19 18 17 18 19 18 16 15 16 17 17 15 15 17 19 18 17 17 16 16 16 16 17 17 17 15 15 15 13 10 8 8 9 9 10 10 11 12 10 8 9 10 11 11 10 11 12 13 15 14 12 13 13 12 12 12 13
15 15 13 12 11 8 7 6 4 4 3 2 3 3 5 6 8 9 9 10 11 12 12 14 14 15 16 17 18 18 17 18 19 17 15 15 15 15 15 15 17 19 20 19 17 17 17 16 16 17 19 18 17 16 16 15 12 10 8 6 5 6 7 10 11 12 11 8 9 11 11 12 13 12 12 13 14 14 14 14 14 14 13 12 12
14 14 13 12 12 10 9 7 5 4 3 4 5 6 6 7 7 8 9 10 10 12 12 13 13 15 15 15 16 16 17 19 19 18 16 15 15 14 15 17 18 18 19 19 17 16 16 16 16 18 19 19 16 15 15 15 13 12 9 4 3 3 4 7 9 12 13 11 10 11 12 13 14 14 13 12 12 14 17 16 15 15 14 12 13
14 13 12 12 11 9 8 6 4 3 2 3 4 4 4 5 6 7 8 9 10 11 12 12 14 14 14 15 15 16 17 19 19 18 17 16 15 16 16 18 19 16 16 18 18 17 17 18 18 19 17 17 16 14 16 17 16 13 8 2 3 3 2 5 9 12 14 14 11 12 14 13 14 14 14 13 12 13 16 17 16 16 15 14 14
13 12 12 11 10 8 7 5 3 2 1 0 0 1 3 4 5 6 7 8 10 11 12 13 13 13 13 14 14 14 16 18 19 18 17 16 15 15 15 18 20 18 16 18 19 19 19 19 17 17 17 15 15 13 17 18 18 16 10 3 3 2 2 5 8 8 13 16 13 14 15 13 14 14 14 13 13 13 14 15 16 16 15 13 14
12 12 11 10 9 8 6 5 3 2 3 3 3 2 4 5 6 7 7 8 9 10 10 10 11 11 12 13 13 13 13 16 18 18 18 17 15 14 15 18 20 19 18 18 20 21 20 19 17 16 16 17 15 13 17 19 18 19 15 6 4 3 2 6 6 3 8 14 14 14 15 14 15 15 14 13 14 14 14 14 15 15 15 13 13
13 12 11 10 9 9 7 6 4 3 4 4 4 4 5 6 6 7 8 9 10 10 9 9 9 10 10 11 12 13 13 14 16 18 19 18 17 15 15 17 18 18 18 19 22 23 21 20 19 17 17 19 17 14 18 19 16 17 18 13 8 5 4 6 5 2 3 8 11 14 15 15 15 14 15 15 14 15 15 15 15 14 14 14 12
14 14 12 11 11 10 9 8 7 5 5 5 5 6 6 8 8 8 9 10 10 10 10 10 10 9 10 10 11 12 12 12 13 16 18 18 17 16 15 17 17 17 18 20 22 23 22 20 19 19 18 19 18 17 19 20 18 16 18 18 14 9 6 8 9 4 1 3 7 10 12 14 15 14 16 16 16 16 16 16 16 15 15 14 12
15 15 13 12 12 12 11 10 9 9 9 8 8 8 9 10 11 11 11 11 10 11 11 10 10 10 9 10 10 11 11 12 12 13 15 16 16 16 15 17 18 17 18 20 21 20 21 22 20 20 21 21 20 21 22 20 20 17 16 18 16 13 10 9 11 8 5 5 4 5 9 12 13 15 17 17 17 16 16 16 16 16 15 12 11
15 14 14 14 13 13 13 12 11 12 13 13 12 12 12 12 13 13 13 13 13 13 13 12 11 10 9 9 10 10 10 11 12 12 13 13 14 15 16 18 19 20 20 20 20 20 21 23 23 21 22 23 21 22 23 20 20 18 16 18 18 14 10 8 9 10 10 9 5 5 10 12 10 13 18 19 18 16 16 16 15 15 15 13 12
13 13 13 13 13 14 14 13 13 14 15 15 15 15 15 15 15 16 16 16 15 15 15 14 13 12 11 9 8 8 9 10 11 12 13 14 15 16 18 19 20 22 22 21 21 21 21 21 22 21 21 23 21 21 22 21 21 19 17 18 19 16 13 9 9 11 9 8 6 5 10 14 12 13 17 19 19 17 17 18 16 15 16 15 14
Wind_Direction
116 128 142 151 153 154 154 159 162 162 159 156 153 149 145 140 136 132 127 122 112 101 98 99 100 94 84 83 98 101 97 95 95 96 95 93 92 92 92 92 93 93 95 98 97 95 94 92 92 92 91 91 91 92 92 93 93 94 94 92 91 90 89 90 91 93 93 91 90 87 83 81 80 78 78 81 82 79 74 70 69 68 66 68 69
119 125 135 146 151 151 152 159 160 159 157 155 153 149 144 139 135 133 129 122 111 105 103 105 106 97 91 94 101 101 99 101 100 97 94 96 98 94 94 96 97 97 98 98 97 96 95 94 93 92 92 92 92 94 96 97 96 95 96 96 94 91 89 88 90 94 96 95 92 88 84 80 78 77 77 78 79 77 75 71 70 70 67 65 66
118 120 125 141 147 148 152 157 157 156 156 154 151 147 143 140 138 135 130 121 113 111 111 113 110 99 96 99 103 106 105 104 101 97 94 97 100 98 99 100 100 100 99 99 99 98 96 95 93 92 91 92 93 93 97 100 99 99 99 97 94 93 93 92 92 93 94 95 94 89 83 77 75 74 73 71 70 71 72 72 72 74 73 69 67
112 118 126 137 143 148 151 155 155 152 152 152 149 145 143 142 141 136 128 121 117 115 117 120 113 104 104 102 104 109 107 104 101 99 99 100 100 101 103 103 102 101 101 100 100 98 96 94 93 93 94 96 97 93 96 100 101 102 102 99 94 92 97 100 100 98 92 87 90 88 77 70 70 72 73 72 68 66 66 67 69 71 73 74 71
112 120 126 130 136 147 150 154 153 149 150 149 147 145 146 146 142 134 128 125 121 120 124 126 119 114 113 107 107 108 108 108 106 103 103 102 101 104 105 104 104 103 101 100 98 97 96 94 94 95 98 98 95 92 92 97 103 106 108 106 100 100 103 106 113 114 103 93 95 92 80 71 67 68 73 77 75 70 67 66 68 68 69 71 70
116 121 126 128 134 145 150 152 153 151 150 148 147 147 148 147 141 134 132 130 124 124 130 132 126 124 121 114 113 110 109 111 111 108 104 102 104 106 106 106 106 104 101 99 98 97 98 97 96 96 95 94 91 89 88 91 99 108 115 112 107 110 105 101 112 124 123 111 108 97 81 78 73 69 72 76 78 76 75 72 70 70 69 68 67
118 125 128 130 136 146 149 151 153 152 151 149 148 147 148 145 142 140 139 136 130 130 134 137 134 132 128 122 122 118 113 112 112 109 104 104 106 108 109 110 107 104 100 99 99 98 97 94 93 94 92 92 91 89 88 89 94 106 118 116 112 110 102 101 105 122 134 359 108 100 83 83 80 75 77 78 78 78 80 78 74 71 69 69 68
123 129 129 132 139 146 147 149 151 151 151 150 149 149 148 146 145 146 145 141 135 132 135 141 140 138 135 130 131 128 121 119 116 111 106 105 108 111 112 113 109 105 102 100 102 98 92 90 92 94 94 94 94 94 92 89 91 100 113 117 113 105 96 94 74 51 47 42 77 96 86 85 82 79 80 81 81 79 78 77 75 71 70 70 70
129 129 131 136 143 146 145 148 151 151 153 152 153 153 152 150 151 151 148 142 136 135 136 142 145 143 139 136 136 136 132 129 126 121 115 112 114 114 114 113 111 108 106 109 110 102 92 91 93 95 99 99 100 102 94 90 98 106 115 118 113 103 91 77 58 58 72 79 88 92 88 87 84 82 79 81 85 81 74 71 72 72 72 72 72
130 125 131 136 143 150 146 148 151 152 155 157 159 159 158 155 154 153 147 142 138 137 135 142 148 147 143 141 141 142 141 137 136 134 128 121 119 117 115 113 111 109 111 116 115 107 98 95 96 97 98 97 99 101 96 101 109 115 120 121 115 104 84 67 57 65 81 88 90 90 91 90 87 86 83 81 81 77 73 72 75 76 75 73 74
119 120 128 136 146 154 152 152 153 155 158 161 164 162 159 154 152 151 145 141 137 135 132 138 147 151 148 145 146 146 145 142 141 145 139 127 123 122 120 119 114 110 114 115 113 108 102 98 97 95 89 85 88 91 101 114 117 120 124 124 117 100 73 61 56 70 86 88 85 86 89 90 90 88 85 83 80 77 75 77 79 78 78 75 74
115 125 131 141 152 157 158 161 161 163 165 165 165 158 154 150 149 149 145 140 136 137 136 135 140 150 154 151 151 150 149 147 145 151 152 141 135 133 133 133 121 113 116 113 112 111 105 100 95 91 86 83 83 89 109 121 121 122 124 121 109 82 65 63 66 79 89 89 88 88 91 91 89 86 85 85 83 80 78 80 80 79 81 80 77
127 140 141 149 158 162 163 166 165 165 164 162 158 150 149 148 150 149 145 141 140 142 142 142 138 143 156 157 154 153 153 152 152 155 159 156 149 146 152 148 131 124 121 117 117 116 111 102 92 88 85 87 90 99 118 124 123 122 117 108 93 71 65 70 79 88 89 91 90 89 92 90 87 86 86 87 86 83 82 84 83 84 85 84 82
141 152 156 160 162 165 165 164 162 161 159 156 153 150 151 151 152 150 148 147 146 147 148 150 142 140 154 158 157 157 158 157 158 159 162 165 159 154 154 148 140 133 125 123 125 124 117 100 88 83 82 89 97 110 124 127 124 120 111 98 81 68 67 74 85 91 90 90 89 88 90 88 88 87 88 90 90 87 85 85 84 84 85 84 83
155 162 161 162 160 159 160 162 164 163 163 161 159 159 159 158 156 154 154 153 152 154 154 152 147 145 153 161 165 164 162 162 163 163 164 165 162 157 150 144 142 134 126 127 129 129 119 99 89 84 83 90 100 117 128 129 126 118 105 90 73 68 68 75 88 92 92 91 89 90 90 92 94 91 90 92 93 92 87 86 85 84 85 83 81
158 156 150 150 152 153 159 167 170 168 168 167 166 165 165 163 161 160 159 158 158 159 157 154 155 157 159 165 171 172 169 166 167 168 167 167 164 160 153 148 144 135 128 128 130 130 119 104 94 88 90 93 103 121 131 130 124 113 95 80 71 67 68 81 94 93 91 90 88 89 89 94 97 93 92 90 91 94 90 86 86 87 86 83 80
146 142 142 146 150 152 158 164 166 165 165 165 166 165 166 165 164 163 161 162 162 162 160 159 161 165 166 166 168 174 176 173 173 173 172 171 167 163 160 153 148 140 131 129 129 131 124 111 100 95 97 99 108 124 136 132 120 107 94 84 77 72 72 81 90 90 91 92 90 93 96 94 93 93 91 88 87 93 94 89 86 85 85 81 76
139 141 147 148 149 150 152 155 157 155 159 161 162 162 164 164 165 165 164 164 165 164 163 164 166 168 170 168 167 171 176 178 178 178 177 176 170 167 166 158 154 147 138 134 132 133 129 117 105 102 102 106 113 123 133 129 117 109 102 96 89 85 84 87 89 89 92 95 95 99 104 97 89 89 86 85 86 88 92 91 87 81 77 72 71
142 144 147 147 146 147 148 149 148 148 154 155 158 163 165 167 170 171 168 168 169 169 168 168 170 171 173 170 168 172 176 179 181 182 183 182 175 173 174 163 159 155 147 142 136 136 132 122 113 107 108 112 115 118 123 122 117 112 107 101 92 85 81 87 94 94 97 99 98 99 100 95 88 85 83 85 86 87 89 92 88 78 75 72 71
148 146 144 146 145 146 145 146 147 149 151 148 155 166 172 175 176 178 173 172 173 174 173 173 176 176 173 170 170 173 176 180 185 187 187 188 181 178 182 171 166 164 157 153 144 141 140 130 120 114 115 115 116 118 119 117 112 107 100 91 86 82 76 83 94 95 101 102 103 108 105 96 90 86 85 85 84 87 88 88 86 78 78 80 79
152 148 138 137 143 144 142 144 147 149 149 150 156 163 175 176 178 184 179 177 178 179 180 179 181 180 174 175 175 173 177 180 183 185 186 189 184 186 193 181 174 171 166 164 154 149 148 139 129 123 119 116 119 119 115 108 103 98 93 90 88 81 77 94 103 98 103 103 105 113 107 95 91 89 89 87 84 87 89 89 90 85 79 79 82
151 149 138 131 139 140 139 143 147 155 157 156 157 161 171 171 174 184 186 187 184 185 187 185 185 183 182 181 178 177 185 180 177 183 182 184 185 191 199 189 179 176 173 170 164 159 154 148 139 129 123 119 121 121 112 102 97 91 89 90 88 79 81 103 108 106 109 108 107 109 104 97 95 93 91 90 86 85 87 92 92 89 83 82 86
153 155 144 134 137 135 137 145 155 166 163 159 161 164 165 166 172 175 187 195 192 194 193 191 190 188 191 189 183 183 190 179 178 187 182 181 185 189 195 192 184 177 175 175 172 167 161 156 147 135 128 124 124 122 115 103 92 89 90 88 90 95 100 107 112 115 113 110 111 108 105 103 98 95 94 93 91 86 85 86 86 87 87 88 88
156 151 139 135 136 134 143 156 167 171 164 161 162 167 166 164 172 173 181 193 194 197 198 199 200 198 203 204 195 190 191 184 182 185 181 182 184 186 190 193 188 179 175 180 182 174 168 164 156 146 142 141 140 144 143 111 69 76 91 89 95 113 115 112 120 121 117 113 114 113 111 108 101 99 98 96 93 89 89 85 83 87 91 91 88
146 137 135 143 144 148 163 168 174 173 165 164 162 170 173 164 171 177 180 193 198 197 199 201 208 211 214 218 211 201 194 186 181 181 187 193 188 186 187 189 191 184 177 183 190 186 177 173 169 162 163 163 161 177 188 159 65 92 104 107 121 130 120 120 131 131 126 123 118 119 120 114 109 107 104 101 98 93 91 88 90 94 96 96 94
131 139 148 147 149 165 176 171 174 174 166 168 168 174 177 166 171 183 186 198 204 203 203 202 217 224 222 222 219 221 208 187 182 185 195 205 193 187 185 185 188 187 184 186 194 196 186 182 183 177 173 178 186 193 190 174 159 157 136 140 152 139 121 122 138 142 126 123 125 124 124 120 116 115 111 109 105 98 94 91 96 98 97 100 96
128 146 155 143 149 176 180 169 173 175 169 171 173 175 182 178 177 187 195 200 205 213 211 208 228 234 235 232 228 242 232 202 195 194 199 203 194 188 184 185 186 187 187 184 195 203 192 191 197 194 188 204 217 199 184 183 179 165 154 164 165 138 125 122 132 139 116 108 127 130 130 127 119 117 118 119 111 105 103 97 96 94 94 99 95
129 144 150 140 153 182 180 169 173 176 172 173 176 176 183 188 188 194 202 205 211 218 217 220 233 240 243 241 237 244 243 231 215 209 215 207 199 195 186 187 187 189 189 182 191 203 197 198 206 208 212 223 212 190 185 190 189 171 156 163 154 129 124 125 125 127 112 103 125 136 138 134 124 116 114 119 118 115 116 105 99 101 101 102 99
130 135 139 138 156 182 179 170 173 177 172 170 179 182 188 196 201 207 210 215 226 229 232 236 238 246 249 244 237 236 241 246 227 223 229 212 204 203 191 191 193 195 193 187 191 200 202 203 207 214 220 222 203 189 194 191 189 175 157 166 158 136 125 128 129 124 123 127 127 136 147 144 139 132 126 131 131 127 124 113 106 109 109 108 111
128 129 135 143 163 177 177 172 172 177 173 169 177 186 194 200 211 224 224 227 244 246 253 261 268 269 256 243 235 230 233 241 233 230 231 217 212 212 201 197 198 202 199 192 193 201 208 207 208 216 219 215 200 194 200 192 192 186 174 177 160 149 142 135 138 135 141 153 140 136 156 156 152 148 145 148 141 132 128 121 119 117 111 110 114
123 127 133 141 157 167 175 175 173 175 174 170 175 188 194 202 220 235 238 236 244 243 250 259 276 277 244 226 227 220 227 241 240 238 234 225 218 218 220 213 204 209 207 197 198 208 212 211 212 217 219 213 200 197 200 201 203 194 184 180 158 152 153 143 144 144 151 166 169 156 156 162 164 157 150 146 142 140 138 133 130 124 122 122 117
123 126 131 138 150 159 170 172 168 170 169 164 180 201 191 214 228 227 229 237 249 236 227 238 234 255 224 213 219 211 213 233 241 243 241 232 220 216 225 227 219 212 209 203 206 212 210 212 216 218 220 216 207 201 201 207 215 202 189 178 156 151 158 152 149 150 156 167 190 188 157 162 169 164 155 149 153 153 148 147 140 128 127 129 122
123 122 130 144 151 152 159 163 161 160 159 158 178 197 186 222 226 204 205 231 289 318 84 248 230 241 219 211 221 216 212 216 222 231 237 236 228 223 223 229 233 220 206 206 211 213 210 211 212 215 220 218 210 201 200 209 217 210 191 169 155 160 163 159 160 158 159 165 184 184 156 156 165 167 165 162 167 162 152 153 148 139 136 134 129
126 120 129 146 150 146 148 152 152 148 152 160 162 172 182 206 203 195 193 206 262 220 203 227 224 223 209 207 220 222 218 216 219 227 233 234 233 236 230 229 241 233 209 204 211 212 210 212 210 213 218 218 209 198 203 212 211 205 187 159 156 167 165 165 167 161 163 166 168 166 159 162 165 168 175 178 183 179 165 157 149 146 146 145 140
129 126 131 138 136 133 131 133 138 142 150 157 160 173 180 176 191 200 192 197 211 203 203 214 218 219 213 213 220 221 222 222 224 227 229 232 235 236 230 228 241 243 224 207 211 211 209 215 212 211 214 214 211 204 207 214 209 205 192 169 167 170 168 173 164 158 166 170 175 178 172 173 177 174 177 184 192 194 176 161 152 148 146 150 147
120 125 130 132 130 127 129 132 137 143 148 155 162 169 169 171 196 204 193 197 205 204 211 222 228 230 230 228 224 222 224 226 229 232 230 233 237 233 232 234 236 244 239 216 213 215 214 219 213 210 212 210 212 214 213 212 212 210 192 177 176 171 175 178 165 165 171 172 179 182 176 176 182 182 175 176 180 179 169 164 166 157 149 149 149
113 121 125 129 128 129 137 138 140 144 148 160 166 162 165 177 199 213 204 194 197 214 221 235 240 241 244 240 231 226 227 229 231 237 239 238 239 236 240 246 236 241 244 224 218 221 221 225 220 213 212 211 214 215 212 209 213 212 191 178 177 174 180 178 170 174 177 183 173 161 173 181 188 192 177 171 175 173 169 172 177 165 158 155 154
108 116 120 127 129 127 132 135 142 151 156 168 169 160 164 182 209 234 229 205 195 221 226 241 247 247 247 244 238 236 234 233 231 234 238 238 238 239 239 236 232 236 236 225 220 226 232 231 224 219 216 212 213 214 210 207 209 207 191 180 178 178 184 182 178 178 176 188 178 165 180 186 190 193 176 173 178 179 178 177 174 164 161 161 161
99 109 112 114 120 124 130 137 144 156 164 167 165 162 163 178 206 244 251 246 236 227 230 239 242 246 246 243 242 242 241 235 229 229 231 232 233 234 235 232 227 234 236 229 222 226 243 244 229 223 222 215 214 217 210 203 203 201 191 181 183 185 187 185 185 185 177 181 173 170 184 185 183 183 174 178 180 179 178 175 171 162 160 162 161
85 98 102 95 101 117 128 136 144 158 165 162 159 163 160 168 195 223 238 244 239 228 232 237 239 245 250 249 248 247 246 237 230 228 226 226 225 221 229 235 231 234 235 233 229 224 235 253 242 228 225 217 216 219 206 197 195 188 178 172 179 187 188 183 184 191 190 189 181 177 189 188 181 179 173 176 178 177 176 169 166 164 165 167 165
78 83 90 93 93 100 106 106 119 136 135 133 135 154 168 183 202 215 227 237 238 230 231 238 240 245 250 251 250 248 248 242 234 230 225 223 223 219 225 233 231 232 230 228 232 229 230 250 252 240 239 225 215 216 204 195 188 171 158 167 180 186 189 184 187 197 195 193 191 185 193 191 181 180 177 176 178 180 177 168 168 178 178 171 171
74 73 76 85 89 94 99 97 107 108 103 141 182 199 205 207 209 214 221 230 236 234 234 239 243 246 249 249 249 248 248 243 236 232 227 224 226 225 225 230 231 230 229 223 225 234 237 245 242 237 247 239 218 214 206 195 190 177 154 153 182 192 201 197 197 203 196 195 198 187 192 194 184 183 184 180 182 188 186 178 180 189 188 178 178
73 72 70 74 78 83 91 98 114 123 146 189 200 207 211 214 217 222 227 232 239 241 242 244 242 243 246 246 245 245 245 242 238 235 232 229 232 232 228 232 233 228 227 224 223 233 238 242 234 224 239 250 235 215 207 201 195 183 164 155 177 175 211 212 210 213 203 201 202 189 193 196 187 186 189 185 186 192 191 190 190 192 193 190 187
71 71 68 68 68 68 73 81 92 112 157 187 190 198 220 225 218 226 237 243 251 252 253 252 246 245 248 250 248 245 244 244 242 240 236 232 230 228 225 231 237 234 230 227 226 230 234 238 234 221 225 251 253 224 209 213 205 185 167 157 156 160 217 202 205 218 211 206 204 195 195 194 187 185 188 188 189 190 192 197 196 192 196 195 188
69 67 66 66 69 69 70 73 70 48 40 353 288 236 256 252 229 232 238 241 249 248 246 250 250 247 250 256 256 253 253 250 245 239 236 233 226 224 227 232 236 236 232 230 228 227 230 235 235 226 220 237 259 236 211 218 217 196 177 155 145 179 228 165 175 211 214 211 209 203 200 193 186 187 187 184 188 191 188 192 192 192 198 194 187
66 65 66 65 66 67 67 70 74 32 20 359 337 316 280 273 261 257 253 253 259 254 250 258 262 255 255 259 260 262 260 252 245 239 238 238 235 232 233 234 231 230 230 232 231 225 227 233 232 231 227 229 250 245 216 216 217 204 195 196 176 161 154 150 153 178 207 213 213 207 206 197 189 191 187 179 186 191 183 183 188 191 195 192 191
60 65 64 60 56 52 51 50 54 37 10 351 341 333 298 288 287 285 285 284 283 283 284 290 286 275 270 267 266 267 261 249 242 241 241 241 240 236 231 230 230 229 230 231 232 229 228 230 229 231 232 228 233 233 222 214 208 208 210 214 207 178 153 161 168 124 172 212 216 212 212 204 197 197 191 185 187 186 180 184 188 188 195 193 189
50 52 49 50 46 40 38 34 36 29 5 351 342 336 318 311 313 309 303 297 293 296 302 302 295 287 283 281 276 273 267 252 240 242 246 245 240 236 228 228 231 233 233 230 231 230 228 226 226 229 228 227 225 223 225 216 203 208 215 218 221 220 204 197 208 207 139 199 201 209 212 204 201 199 195 191 187 185 183 186 185 186 198 196 184
44 41 37 40 39 35 32 28 27 19 6 355 344 339 330 320 315 312 312 313 310 308 307 304 301 298 292 289 283 280 277 267 254 248 250 245 238 236 234 232 231 231 229 228 229 230 229 226 225 226 222 223 222 219 222 217 206 209 214 217 222 225 225 226 223 207 199 210 187 185 195 196 201 201 200 195 188 189 187 184 186 189 198 199 182
43 37 33 33 30 27 24 23 21 11 4 360 353 351 347 337 329 328 328 328 324 316 311 307 308 309 302 295 288 286 287 281 272 260 252 245 237 238 239 234 230 230 229 228 228 228 228 227 227 228 223 221 220 221 224 220 213 212 214 217 216 214 217 227 230 211 202 212 205 178 179 184 193 196 200 197 188 192 190 182 187 191 191 190 186
44 37 32 28 25 22 17 17 14 5 1 358 355 355 355 353 349 347 345 340 334 325 317 313 315 317 310 301 291 286 288 285 279 272 263 254 246 242 238 235 234 234 234 232 228 225 226 225 225 227 224 218 215 222 227 222 219 216 215 219 215 211 211 211 224 218 209 214 202 175 180 184 183 183 193 195 189 195 196 186 185 189 188 187 192